Tracking 18673 objects as of 27-June-2017
HD Live streaming from Space Station
objects crossing your sky now

OSCAR 3

Track OSCAR 3 now!
10-day predictions
OSCAR 3 is classified as:


NORAD ID: 1293
Int'l Code: 1965-016F
Perigee: 865.8 km
Apogee: 893.4 km
Inclination: 70.1 °
Period: 102.4 minutes
Semi major axis: 7250 km
RCS: 0.24 m2 (medium)
Launch date: March 9, 1965
Source: United States (US)
Launch site: AIR FORCE WESTERN TEST RANGE (AFWTR)
Uplink (MHz): 145.975-146.025
Downlink (MHz): 144.325-144.375
Beacon (MHz):
Mode: SSB CW
Call sign:
Status: Inactive

Your satellite tracking list
Your tracking list is empty





NASA's NSSDC Master Catalog

Two Line Element Set (TLE):
1  1293U 65016F   17177.77135854 -.00000013 +00000-0 +24502-4 0  9998
2  1293 070.0751 308.3113 0019008 220.5201 139.4496 14.06178706671208
Source of the keplerian elements: AFSPC